Iowa Falls, IA

8:14 AM CST on December 11, 2019 (GMT -0600)
Iowa Falls Municipal

Weather History for KIFA - October, 2019

Change the Weather History Date:

Saturday, October 19, 2019

  Actual Average Record
Temperature  
Mean Temperature 56 °F -  
Max Temperature 65 °F 59 °F 80 °F (2015)
Min Temperature 46 °F 34 °F 15 °F (1972)
Degree Days  
Heating Degree Days 9    
Growing Degree Days 6 (Base 50)    
Moisture  
Dew Point 44 °F    
Average Humidity 71    
Maximum Humidity 86    
Minimum Humidity 32    
Precipitation  
Precipitation 0.14 in - - ()
Sea Level Pressure  
Sea Level Pressure 29.74 in    
Wind  
Wind Speed 6 mph ()    
Max Wind Speed 13 mph    
Max Gust Speed -    
Visibility 9.9 miles    
Events Rain    
Averages and records for this station are not official NWS values.
T = Trace of Precipitation, MM = Missing Value Source: Averaged Metar Reports

Daily Weather History Graph

Daily Weather History Graph

Search for Another Location

Airport or City:

Astronomy

Oct. 19, 2019 Rise Set
Actual Time 7:30 AM CDT 6:24 PM CDT
Civil Twilight 7:01 AM CDT 6:53 PM CDT
Nautical Twilight 6:29 AM CDT 7:26 PM CDT
Astronomical Twilight 5:56 AM CDT 7:58 PM CDT
Moon 10:29 PM CDT (10/19) 1:08 PM CDT (10/19)
Length of Visible Light 11h 51m
Length of Day
10h 54m
Waning Gibbous, 69% of the Moon is Illuminated
Oct 19
Waning Gibbous
Oct 21
Last Quarter
Oct 27
New
Nov 4
First Quarter
Nov 12
Full

Hourly Weather History & Observations

Time (CDT) Temp. Dew Point Humidity Pressure Visibility Wind Dir Wind Speed Gust Speed Precip Events Conditions
12:15 AM 53.6 °F 41.2 °F 63% 29.71 in 10.0 mi SSE 11.5 mph - N/A   Clear
12:35 AM 52.7 °F 41.2 °F 65% 29.71 in 10.0 mi SSE 12.7 mph - N/A   Clear
12:55 AM 51.6 °F 41.4 °F 68% 29.70 in 10.0 mi SSE 9.2 mph - N/A   Clear
1:15 AM 51.4 °F 41.5 °F 69% 29.70 in 10.0 mi SSE 10.4 mph - N/A   Clear
1:35 AM 51.8 °F 41.5 °F 68% 29.70 in 10.0 mi SSE 11.5 mph - N/A   Clear
1:55 AM 51.8 °F 41.9 °F 69% 29.69 in 10.0 mi SSE 11.5 mph - N/A   Mostly Cloudy
2:15 AM 52.7 °F 41.9 °F 67% 29.69 in 10.0 mi SSE 11.5 mph - N/A   Overcast
2:35 AM 52.7 °F 41.9 °F 67% 29.69 in 10.0 mi SSE 9.2 mph - N/A   Overcast
2:55 AM 52.2 °F 41.9 °F 68% 29.69 in 10.0 mi SSE 8.1 mph - N/A   Overcast
3:15 AM 52.7 °F 42.1 °F 67% 29.69 in 10.0 mi South 9.2 mph - N/A   Overcast
3:35 AM 52.7 °F 42.1 °F 67% 29.69 in 10.0 mi South 8.1 mph - N/A   Overcast
3:55 AM 53.1 °F 42.3 °F 67% 29.68 in 10.0 mi South 9.2 mph - N/A   Overcast
4:15 AM 54.1 °F 42.4 °F 65% 29.68 in 10.0 mi South 9.2 mph - N/A   Overcast
4:35 AM 54.5 °F 42.4 °F 64% 29.68 in 10.0 mi SSW 9.2 mph - N/A   Overcast
4:55 AM 54.0 °F 42.6 °F 65% 29.68 in 10.0 mi South 9.2 mph - N/A   Overcast
5:15 AM 53.6 °F 42.8 °F 67% 29.68 in 10.0 mi South 9.2 mph - N/A   Overcast
5:35 AM 53.6 °F 42.8 °F 67% 29.69 in 10.0 mi SSW 8.1 mph - N/A   Overcast
5:55 AM 52.7 °F 43.7 °F 71% 29.69 in 10.0 mi SSW 8.1 mph - N/A Rain Rain
6:15 AM 51.8 °F 44.8 °F 77% 29.69 in 10.0 mi SSW 4.6 mph - 0.01 in Rain Rain
6:35 AM 51.1 °F 45.5 °F 81% 29.72 in 10.0 mi SSW 9.2 mph - 0.02 in Rain Rain
6:55 AM 50.9 °F 45.7 °F 82% 29.71 in 10.0 mi SSW 3.5 mph - 0.04 in Rain Rain
7:15 AM 50.9 °F 46.4 °F 85% 29.71 in 7.0 mi South 5.8 mph - 0.04 in Rain Rain
7:35 AM 50.7 °F 46.4 °F 85% 29.71 in 7.0 mi Calm Calm - 0.08 in Rain Light Rain
8:15 AM 50.9 °F 46.6 °F 85% 29.73 in 7.0 mi Calm Calm - 0.01 in Rain Light Rain
8:35 AM 50.7 °F 46.6 °F 86% 29.74 in 10.0 mi WNW 4.6 mph - 0.01 in   Drizzle
8:55 AM 50.9 °F 46.6 °F 85% 29.76 in 10.0 mi SW 5.8 mph - 0.02 in   Drizzle
9:15 AM 50.9 °F 46.6 °F 85% 29.76 in 10.0 mi West 3.5 mph - N/A   Light Drizzle
9:35 AM 50.9 °F 46.8 °F 86% 29.75 in 10.0 mi West 3.5 mph - N/A   Overcast
9:55 AM 51.1 °F 46.8 °F 85% 29.75 in 10.0 mi Calm Calm - N/A   Overcast
10:15 AM 51.3 °F 46.8 °F 85% 29.75 in 10.0 mi Calm Calm - N/A   Drizzle
10:35 AM 51.8 °F 46.8 °F 83% 29.76 in 10.0 mi Calm Calm - N/A   Overcast
10:55 AM 52.0 °F 46.6 °F 82% 29.76 in 10.0 mi Calm Calm - N/A   Overcast
11:15 AM 52.2 °F 46.6 °F 81% 29.77 in 10.0 mi Calm Calm - N/A Rain Light Rain
11:35 AM 52.5 °F 46.6 °F 80% 29.77 in 10.0 mi Calm Calm - N/A   Overcast
11:55 AM 52.7 °F 46.4 °F 79% 29.76 in 10.0 mi Calm Calm - N/A Rain Light Rain
12:15 PM 53.1 °F 45.7 °F 76% 29.77 in 10.0 mi Calm Calm - N/A   Overcast
12:35 PM 53.1 °F 46.6 °F 79% 29.78 in 10.0 mi SW 3.5 mph - N/A   Overcast
12:55 PM 53.8 °F 47.3 °F 79% 29.78 in 10.0 mi SSW 4.6 mph - N/A   Overcast
1:35 PM 57.2 °F 47.7 °F 70% 29.77 in 10.0 mi SW 4.6 mph - N/A   Scattered Clouds
1:55 PM 57.2 °F 46.4 °F 67% 29.76 in 10.0 mi SSW 4.6 mph - N/A   Mostly Cloudy
2:15 PM 58.6 °F 47.7 °F 67% 29.75 in 10.0 mi SSW 4.6 mph - N/A   Scattered Clouds
2:35 PM 60.1 °F 47.5 °F 63% 29.75 in 10.0 mi SW 5.8 mph - N/A   Scattered Clouds
2:55 PM 61.7 °F 47.7 °F 60% 29.74 in 10.0 mi Calm Calm - N/A   Scattered Clouds
3:15 PM 62.8 °F 46.2 °F 55% 29.74 in 10.0 mi SW 4.6 mph - N/A   Clear
3:35 PM 63.5 °F 45.0 °F 51% 29.74 in 10.0 mi Calm Calm - N/A   Clear
3:55 PM 64.6 °F 42.3 °F 44% 29.74 in 10.0 mi West 3.5 mph - N/A   Clear
4:15 PM 65.7 °F 37.6 °F 36% 29.74 in 10.0 mi WNW 6.9 mph - N/A   Clear
4:35 PM 65.5 °F 36.5 °F 34% 29.74 in 10.0 mi NW 9.2 mph - N/A   Clear
4:55 PM 65.5 °F 36.3 °F 34% 29.74 in 10.0 mi NNW 3.5 mph - N/A   Clear
5:15 PM 64.9 °F 35.4 °F 33% 29.74 in 10.0 mi Calm Calm - N/A   Clear
5:35 PM 64.6 °F 34.2 °F 32% 29.74 in 10.0 mi Calm Calm - N/A   Clear
5:55 PM 63.9 °F 34.5 °F 34% 29.74 in 10.0 mi Calm Calm - N/A   Clear
6:15 PM 60.8 °F 40.3 °F 47% 29.74 in 10.0 mi ESE 4.6 mph - N/A   Clear
6:35 PM 55.6 °F 45.9 °F 70% 29.75 in 10.0 mi SSE 8.1 mph - N/A   Clear
6:55 PM 54.9 °F 45.9 °F 72% 29.76 in 10.0 mi SSE 6.9 mph - N/A   Clear
7:15 PM 52.7 °F 45.0 °F 75% 29.77 in 10.0 mi SSE 5.8 mph - N/A   Clear
7:35 PM 51.8 °F 44.6 °F 76% 29.77 in 10.0 mi SSE 5.8 mph - N/A   Clear
7:55 PM 50.5 °F 44.6 °F 80% 29.77 in 10.0 mi Calm Calm - N/A   Clear
8:15 PM 49.5 °F 43.7 °F 81% 29.78 in 10.0 mi SSE 3.5 mph - N/A   Clear
8:35 PM 49.1 °F 43.7 °F 82% 29.78 in 10.0 mi SSE 4.6 mph - N/A   Clear
8:55 PM 48.6 °F 43.5 °F 83% 29.78 in 10.0 mi South 5.8 mph - N/A   Clear
9:15 PM 48.2 °F 43.2 °F 83% 29.78 in 10.0 mi South 4.6 mph - N/A   Clear
9:35 PM 47.8 °F 43.2 °F 84% 29.79 in 10.0 mi South 4.6 mph - N/A   Clear
9:55 PM 48.2 °F 43.0 °F 82% 29.79 in 10.0 mi South 3.5 mph - N/A   Clear
10:15 PM 47.5 °F 42.4 °F 83% 29.79 in 10.0 mi South 3.5 mph - N/A   Clear
10:35 PM 48.4 °F 43.3 °F 83% 29.79 in 10.0 mi South 5.8 mph - N/A   Clear
10:55 PM 48.0 °F 42.3 °F 80% 29.80 in 10.0 mi South 4.6 mph - N/A   Clear
11:15 PM 47.7 °F 42.4 °F 82% 29.80 in 10.0 mi SSW 3.5 mph - N/A   Clear
11:35 PM 47.8 °F 42.4 °F 82% 29.80 in 10.0 mi Calm Calm - N/A   Clear
11:55 PM 46.6 °F 41.5 °F 83% 29.80 in 10.0 mi Calm Calm - N/A   Clear